Temp
-9 -9 -9 -9 -10 -9 -10 -10 -10 -10 -10 -10 -9 -9 -9 -9 -9 -9 -9 -10 -10 -10 -10 -10 -10 -10 -10 -10 -10 -10 -10 -10 -10 -10 -10 -10 -10 -11 -11 -11 -11 -11 -12
-9 -9 -9 -9 -9 -10 -10 -10 -10 -10 -10 -10 -9 -9 -9 -9 -9 -10 -10 -10 -10 -10 -10 -10 -10 -10 -10 -10 -10 -10 -10 -11 -11 -11 -11 -11 -11 -11 -12 -12 -12 -12 -12
-9 -9 -9 -9 -9 -9 -9 -9 -9 -9 -9 -9 -9 -8 -9 -9 -10 -10 -10 -10 -10 -10 -10 -10 -10 -10 -10 -10 -10 -10 -11 -11 -11 -11 -12 -12 -12 -12 -13 -13 -13 -13 -13
-9 -9 -9 -9 -9 -9 -9 -9 -9 -9 -9 -9 -9 -9 -10 -10 -10 -10 -10 -10 -10 -10 -10 -10 -10 -10 -10 -11 -11 -11 -11 -12 -12 -12 -12 -12 -13 -13 -13 -13 -13 -13 -13
-9 -9 -9 -9 -9 -9 -9 -9 -9 -9 -9 -9 -9 -10 -10 -10 -10 -10 -10 -10 -10 -10 -10 -11 -11 -11 -11 -12 -12 -12 -12 -12 -12 -12 -13 -13 -13 -13 -13 -13 -13 -13 -13
-9 -9 -9 -9 -9 -9 -9 -9 -9 -9 -9 -10 -10 -10 -10 -11 -11 -10 -10 -11 -11 -11 -11 -11 -12 -12 -12 -12 -12 -12 -12 -13 -13 -13 -13 -13 -13 -13 -13 -13 -13 -13 -13
-9 -9 -9 -9 -9 -9 -9 -9 -10 -10 -10 -10 -10 -11 -11 -11 -11 -11 -11 -11 -11 -11 -12 -12 -12 -12 -12 -12 -12 -13 -13 -13 -13 -13 -13 -13 -13 -13 -13 -14 -14 -14 -14
-9 -9 -9 -9 -9 -9 -9 -10 -10 -10 -10 -11 -11 -11 -11 -11 -11 -11 -11 -11 -12 -12 -12 -12 -12 -12 -12 -13 -13 -13 -14 -14 -14 -14 -14 -14 -14 -14 -14 -14 -14 -14 -14
-9 -9 -9 -10 -10 -10 -9 -10 -10 -10 -11 -11 -11 -11 -11 -12 -12 -12 -12 -12 -12 -12 -12 -12 -12 -13 -13 -13 -14 -14 -14 -15 -15 -15 -15 -15 -15 -15 -15 -15 -15 -15 -15
-10 -10 -10 -10 -10 -10 -10 -10 -10 -11 -11 -11 -11 -11 -12 -12 -12 -12 -12 -12 -13 -13 -12 -12 -13 -13 -14 -14 -14 -15 -15 -15 -15 -15 -15 -15 -15 -15 -15 -15 -15 -15 -15
-10 -10 -10 -10 -10 -10 -10 -10 -11 -11 -11 -12 -12 -12 -12 -12 -12 -13 -13 -12 -13 -13 -13 -13 -13 -14 -14 -15 -15 -15 -15 -16 -16 -16 -16 -16 -16 -16 -15 -15 -15 -15 -15
-11 -10 -10 -10 -10 -10 -10 -11 -11 -12 -12 -12 -12 -12 -12 -12 -13 -13 -13 -13 -13 -13 -13 -14 -14 -14 -15 -15 -16 -16 -16 -16 -16 -16 -16 -16 -16 -16 -16 -15 -15 -15 -15
-11 -11 -11 -11 -11 -11 -11 -11 -12 -12 -12 -12 -12 -12 -13 -13 -13 -13 -13 -14 -13 -14 -14 -14 -15 -15 -15 -16 -16 -16 -17 -16 -16 -16 -16 -16 -16 -16 -16 -16 -16 -15 -15
-12 -11 -11 -11 -11 -11 -11 -12 -12 -12 -13 -13 -13 -13 -13 -13 -13 -13 -13 -14 -14 -14 -15 -15 -15 -16 -16 -16 -16 -16 -17 -17 -16 -16 -17 -16 -17 -17 -17 -16 -16 -15 -15
-12 -12 -12 -12 -12 -12 -12 -12 -12 -13 -13 -13 -13 -13 -13 -13 -13 -13 -14 -14 -14 -15 -15 -15 -15 -16 -16 -17 -17 -17 -17 -17 -17 -17 -17 -17 -18 -17 -17 -17 -16 -16 -18
-12 -12 -13 -12 -12 -12 -13 -13 -13 -13 -13 -13 -13 -13 -13 -13 -13 -14 -14 -14 -15 -15 -15 -15 -16 -16 -17 -17 -17 -17 -17 -17 -17 -18 -18 -18 -18 -18 -18 -18 -18 -19 -23
-13 -13 -13 -13 -13 -13 -13 -13 -13 -13 -14 -13 -13 -14 -14 -14 -14 -14 -14 -15 -15 -15 -16 -16 -16 -16 -17 -17 -17 -17 -18 -18 -18 -18 -18 -18 -19 -19 -19 -19 -21 -24 -27
-13 -13 -13 -13 -13 -14 -14 -14 -13 -14 -14 -14 -14 -14 -14 -14 -15 -15 -15 -15 -15 -16 -16 -17 -17 -17 -17 -17 -17 -18 -18 -18 -18 -18 -18 -19 -19 -20 -20 -23 -26 -27 -27
-14 -14 -14 -14 -14 -14 -14 -14 -14 -14 -14 -14 -14 -14 -15 -15 -15 -15 -15 -16 -16 -16 -16 -17 -17 -17 -17 -17 -17 -18 -18 -18 -18 -19 -19 -19 -19 -20 -23 -27 -28 -27 -26
-14 -14 -14 -14 -14 -15 -15 -15 -15 -15 -15 -15 -15 -15 -15 -15 -15 -16 -16 -16 -16 -17 -17 -17 -17 -17 -17 -17 -18 -18 -18 -18 -18 -18 -19 -20 -20 -22 -26 -28 -28 -27 -26
-14 -14 -14 -14 -15 -15 -15 -15 -15 -15 -15 -15 -15 -15 -15 -15 -16 -16 -16 -16 -17 -17 -17 -17 -17 -17 -17 -17 -18 -18 -18 -18 -19 -19 -19 -20 -20 -24 -28 -28 -28 -27 -26
-15 -15 -15 -15 -15 -15 -15 -15 -15 -15 -15 -15 -15 -15 -16 -16 -16 -16 -16 -17 -17 -17 -17 -17 -17 -17 -17 -18 -18 -19 -19 -19 -18 -19 -20 -20 -22 -27 -29 -28 -27 -27 -27
-15 -15 -15 -15 -15 -16 -16 -16 -16 -16 -16 -16 -15 -16 -16 -16 -16 -17 -17 -17 -17 -17 -17 -17 -17 -17 -18 -18 -19 -19 -19 -19 -20 -20 -20 -21 -23 -27 -28 -28 -27 -27 -26
-15 -15 -15 -16 -16 -16 -16 -16 -16 -16 -16 -16 -16 -16 -16 -17 -17 -17 -17 -17 -18 -18 -18 -18 -18 -18 -18 -19 -19 -19 -20 -20 -20 -21 -21 -21 -23 -27 -28 -28 -27 -27 -26
-16 -16 -16 -16 -16 -16 -17 -16 -16 -16 -16 -16 -17 -17 -17 -17 -17 -17 -17 -18 -18 -18 -18 -18 -18 -19 -19 -19 -20 -20 -20 -20 -20 -21 -21 -21 -24 -26 -27 -27 -27 -27 -26
-16 -16 -16 -16 -17 -17 -17 -17 -17 -16 -16 -17 -17 -17 -17 -17 -18 -17 -18 -18 -18 -18 -19 -19 -19 -19 -20 -20 -20 -20 -20 -21 -21 -21 -21 -22 -25 -26 -26 -27 -27 -26 -26
Height
5871 5870 5870 5869 5867 5865 5864 5864 5863 5862 5860 5859 5857 5854 5853 5853 5851 5849 5850 5848 5845 5842 5840 5839 5836 5834 5833 5831 5828 5825 5822 5819 5816 5813 5810 5807 5803 5800 5797 5795 5793 5791 5789
5870 5870 5869 5866 5864 5863 5862 5861 5860 5860 5857 5855 5852 5850 5851 5850 5847 5846 5844 5841 5838 5837 5835 5833 5831 5829 5827 5824 5821 5818 5815 5812 5809 5805 5802 5798 5794 5791 5787 5784 5780 5778 5776
5867 5866 5865 5863 5860 5860 5859 5858 5858 5856 5853 5851 5849 5847 5848 5847 5843 5841 5839 5837 5834 5831 5829 5827 5825 5823 5820 5817 5815 5812 5808 5804 5800 5796 5792 5788 5785 5781 5778 5774 5770 5767 5763
5864 5863 5862 5860 5857 5856 5855 5855 5853 5850 5849 5847 5845 5842 5842 5839 5838 5835 5833 5830 5828 5827 5824 5822 5820 5817 5814 5811 5808 5805 5801 5796 5791 5787 5783 5779 5776 5772 5768 5763 5759 5755 5752
5860 5859 5859 5857 5854 5853 5852 5851 5848 5845 5844 5842 5840 5838 5836 5834 5832 5830 5828 5826 5824 5823 5820 5817 5813 5809 5806 5803 5800 5796 5792 5787 5783 5778 5774 5770 5766 5762 5758 5753 5749 5745 5740
5857 5856 5855 5854 5852 5850 5848 5846 5843 5841 5840 5838 5836 5833 5830 5828 5826 5824 5823 5822 5820 5817 5814 5810 5806 5802 5799 5796 5792 5787 5782 5777 5772 5767 5763 5758 5754 5750 5746 5741 5736 5731 5727
5853 5853 5851 5850 5848 5846 5844 5842 5838 5837 5836 5834 5831 5829 5826 5823 5821 5819 5817 5815 5812 5809 5806 5802 5798 5794 5790 5786 5782 5776 5771 5766 5761 5756 5751 5746 5741 5736 5731 5726 5722 5717 5713
5849 5847 5846 5844 5843 5841 5839 5836 5834 5832 5831 5829 5827 5824 5822 5819 5816 5813 5811 5809 5805 5801 5797 5793 5789 5785 5780 5775 5770 5765 5761 5755 5750 5745 5739 5734 5728 5722 5717 5711 5706 5700 5695
5843 5842 5840 5838 5837 5836 5834 5831 5829 5826 5825 5823 5820 5819 5816 5814 5811 5808 5805 5801 5797 5793 5789 5785 5781 5776 5772 5767 5761 5756 5750 5744 5738 5732 5726 5720 5714 5707 5700 5693 5686 5679 5672
5837 5835 5835 5832 5831 5830 5828 5826 5823 5822 5819 5817 5814 5812 5810 5808 5806 5802 5798 5795 5790 5786 5782 5778 5773 5768 5763 5758 5752 5746 5739 5733 5727 5720 5714 5706 5699 5692 5684 5676 5668 5660 5651
5829 5828 5828 5826 5825 5823 5821 5820 5817 5816 5814 5812 5809 5806 5804 5801 5797 5793 5788 5785 5782 5778 5774 5769 5764 5759 5754 5749 5743 5736 5728 5721 5714 5707 5699 5692 5683 5674 5665 5656 5647 5637 5627
5822 5822 5821 5820 5818 5816 5815 5813 5811 5809 5807 5805 5803 5801 5799 5797 5794 5789 5784 5779 5776 5772 5768 5763 5757 5752 5746 5740 5733 5724 5717 5709 5701 5693 5683 5675 5665 5654 5643 5632 5621 5609 5597
5815 5814 5813 5813 5811 5809 5808 5807 5804 5802 5801 5799 5796 5794 5792 5790 5786 5782 5777 5772 5767 5764 5759 5755 5749 5743 5737 5731 5723 5715 5705 5696 5685 5675 5665 5656 5643 5631 5618 5605 5591 5577 5564
5807 5807 5806 5805 5803 5802 5800 5799 5797 5795 5793 5791 5790 5787 5785 5782 5779 5776 5771 5766 5761 5757 5753 5747 5742 5736 5729 5721 5712 5702 5692 5681 5671 5660 5648 5636 5620 5605 5591 5576 5559 5542 5526
5799 5799 5798 5797 5796 5795 5793 5791 5790 5788 5786 5784 5782 5780 5777 5774 5771 5768 5764 5759 5755 5751 5746 5741 5735 5727 5719 5710 5701 5690 5679 5667 5655 5643 5630 5615 5597 5580 5563 5543 5524 5505 5484
5790 5790 5789 5788 5787 5787 5785 5784 5782 5781 5779 5777 5775 5772 5769 5766 5764 5760 5757 5753 5748 5742 5737 5732 5724 5717 5708 5698 5689 5678 5667 5656 5642 5628 5613 5594 5573 5553 5532 5510 5487 5467 5452
5780 5781 5780 5780 5780 5779 5778 5777 5776 5774 5772 5769 5767 5764 5761 5758 5756 5752 5749 5745 5740 5734 5727 5720 5713 5704 5697 5689 5679 5668 5656 5643 5629 5614 5595 5572 5549 5525 5501 5477 5455 5441 5435
5769 5770 5770 5770 5771 5770 5770 5770 5769 5766 5764 5762 5759 5757 5754 5751 5748 5744 5741 5736 5732 5728 5721 5713 5705 5697 5689 5679 5669 5658 5646 5631 5615 5599 5578 5552 5526 5498 5471 5448 5435 5428 5424
5760 5761 5761 5762 5762 5762 5762 5762 5761 5759 5757 5755 5752 5750 5747 5745 5741 5737 5733 5729 5724 5719 5712 5704 5695 5687 5678 5669 5660 5649 5635 5620 5600 5581 5560 5534 5507 5477 5449 5432 5423 5417 5412
5751 5752 5753 5754 5754 5754 5754 5754 5753 5751 5749 5747 5745 5742 5740 5737 5734 5729 5726 5722 5717 5710 5703 5695 5686 5677 5669 5659 5648 5639 5629 5607 5586 5568 5546 5516 5490 5458 5434 5422 5414 5407 5403
5742 5742 5744 5745 5745 5746 5746 5745 5744 5743 5741 5740 5738 5736 5733 5730 5726 5723 5719 5715 5709 5703 5696 5687 5678 5667 5658 5648 5637 5623 5609 5593 5574 5555 5535 5503 5480 5449 5427 5417 5407 5400 5395
5732 5733 5735 5736 5737 5737 5738 5737 5736 5734 5733 5732 5731 5729 5726 5723 5719 5716 5712 5708 5702 5695 5687 5677 5665 5656 5643 5634 5622 5608 5590 5571 5565 5550 5524 5492 5459 5437 5420 5410 5401 5393 5387
5723 5724 5725 5727 5728 5729 5729 5728 5728 5726 5726 5724 5723 5721 5718 5715 5712 5708 5703 5698 5691 5684 5675 5663 5653 5642 5631 5621 5611 5598 5578 5555 5530 5515 5501 5476 5447 5430 5414 5403 5395 5387 5378
5714 5715 5717 5718 5719 5720 5720 5720 5719 5718 5718 5716 5715 5713 5710 5707 5703 5699 5694 5688 5682 5673 5664 5653 5642 5630 5619 5608 5594 5577 5565 5554 5533 5504 5481 5462 5439 5424 5411 5399 5389 5379 5369
5704 5706 5707 5709 5710 5710 5711 5711 5710 5710 5708 5708 5706 5704 5702 5699 5696 5692 5686 5680 5673 5664 5653 5641 5629 5619 5607 5594 5582 5568 5551 5534 5524 5501 5479 5447 5430 5417 5407 5395 5383 5372 5362
5695 5698 5699 5700 5700 5701 5702 5702 5701 5701 5701 5700 5698 5697 5694 5692 5688 5683 5678 5672 5665 5657 5646 5635 5623 5610 5598 5584 5568 5553 5537 5518 5492 5485 5465 5444 5421 5405 5402 5389 5377 5366 5357
Wind_Speed
9 13 14 15 16 17 17 16 15 14 15 16 17 18 19 21 21 24 22 24 27 29 29 29 30 31 33 33 32 33 36 32 40 42 44 45 46 49 50 50 50 51 52
12 13 14 17 17 15 15 13 14 13 17 19 21 22 22 23 26 27 26 28 30 30 30 29 29 29 31 33 34 35 37 39 42 44 45 46 48 50 51 52 53 52 51
13 15 17 18 18 15 14 14 15 17 19 21 23 23 21 21 24 26 26 26 29 27 26 26 29 32 35 36 36 37 40 41 43 46 47 47 46 47 48 49 50 51 52
17 18 19 19 18 18 17 18 18 20 21 21 22 23 21 23 23 23 23 24 24 24 27 30 33 34 36 37 37 38 40 42 43 43 43 44 45 46 47 49 51 51 52
20 20 21 20 19 19 19 19 21 23 21 21 22 23 23 23 22 21 21 23 25 27 30 33 35 36 37 39 40 41 42 42 42 42 43 45 47 49 50 51 52 53 55
22 22 24 22 22 22 22 21 22 23 23 22 24 25 23 22 22 22 24 25 26 29 32 33 35 37 39 42 43 44 44 44 44 46 48 50 52 54 56 57 58 58 59
24 24 26 26 24 23 23 24 24 24 24 25 26 25 24 24 24 25 27 28 30 33 34 35 36 39 40 42 44 45 45 46 48 50 53 55 57 59 59 60 61 61 62
26 26 28 26 25 25 24 25 24 25 26 26 26 25 25 25 26 28 31 33 34 36 37 38 40 42 43 44 46 46 48 50 52 55 56 57 59 60 63 65 67 69 71
28 27 29 28 27 26 26 27 26 27 28 29 28 27 26 27 28 31 34 36 37 38 39 40 42 43 45 46 47 49 50 52 53 54 56 60 63 66 68 71 74 76 78
29 28 28 28 28 27 28 28 27 28 29 30 30 29 28 30 32 33 36 37 37 38 39 40 42 43 45 46 47 48 49 52 55 58 60 63 66 69 71 74 76 78 81
30 28 27 26 27 28 30 30 28 29 30 29 29 30 31 32 34 36 38 39 38 38 39 41 42 42 43 45 46 49 52 54 57 60 63 66 69 72 74 77 79 82 85
29 29 29 28 29 30 31 30 29 30 31 30 29 29 30 31 34 35 35 36 36 38 39 39 40 41 43 47 49 51 55 58 61 65 69 72 74 76 79 82 85 88 92
31 30 27 27 31 32 31 32 31 30 30 30 30 29 31 32 34 34 34 35 35 35 37 38 40 43 46 48 50 54 58 62 68 72 75 78 80 82 85 89 92 96 100
33 30 31 31 31 32 33 34 33 31 30 30 31 30 32 33 32 32 33 33 33 34 35 38 42 45 48 51 55 58 62 67 71 75 78 81 84 87 91 96 101 107 109
36 34 38 35 33 33 35 34 33 32 32 31 32 33 32 32 32 32 31 31 32 34 36 40 43 47 50 53 56 60 65 70 75 79 80 84 87 91 98 106 110 110 101
41 41 37 34 34 36 35 33 32 33 32 32 33 33 32 31 31 30 30 31 33 36 40 43 46 49 52 55 59 63 67 71 76 79 82 87 93 100 108 111 109 97 79
44 44 39 37 37 35 35 33 33 33 32 32 33 33 31 31 29 30 31 32 35 39 43 47 50 52 54 56 59 63 68 73 77 81 85 92 100 109 112 107 95 75 54
43 40 38 37 35 34 33 31 35 33 34 32 33 32 30 29 29 30 31 33 36 40 44 48 49 51 53 56 60 65 70 75 80 83 88 98 105 114 106 88 72 55 45
36 36 34 35 33 33 33 33 33 36 33 33 32 31 28 28 28 30 31 34 39 44 48 49 51 53 55 59 61 65 70 76 83 87 92 101 111 107 87 67 54 47 43
34 33 34 34 32 32 32 33 33 33 32 34 32 28 28 27 29 30 32 36 41 46 48 50 52 54 57 60 64 66 71 80 87 91 96 104 111 91 68 56 50 46 42
33 33 34 33 33 32 32 32 32 32 33 33 31 28 27 28 29 31 34 38 42 46 49 52 53 56 59 62 66 72 77 83 88 92 97 107 106 75 55 49 46 44 42
33 33 34 34 33 32 32 31 32 31 33 33 29 29 29 29 31 33 35 39 43 47 51 54 57 60 62 65 70 76 82 88 89 93 99 108 97 55 47 44 43 41 41
35 35 35 34 33 31 32 31 32 31 32 30 31 29 30 31 34 35 37 41 46 51 55 58 61 63 65 68 72 77 82 90 96 100 103 107 85 45 44 43 42 42 44
36 36 35 34 33 32 32 32 32 32 30 32 30 29 30 33 35 37 39 43 47 52 56 60 62 64 67 70 75 80 83 86 91 100 106 107 82 43 39 43 43 42 43
36 36 35 35 34 31 31 31 32 31 31 31 29 30 32 34 36 37 40 43 48 54 59 62 63 65 68 71 75 79 84 90 91 98 101 104 79 45 38 41 43 43 41
36 39 37 35 32 31 31 31 31 31 32 30 29 31 33 35 37 38 39 43 48 52 56 59 62 65 67 71 76 81 86 92 98 99 102 99 74 52 33 43 46 44 39
Wind_Direction
336 333 334 330 319 314 310 305 303 302 301 296 292 289 289 290 291 296 299 301 296 293 295 296 293 293 299 299 300 299 299 297 298 302 299 294 291 292 290 285 282 280 278
317 326 328 317 308 300 294 295 296 293 286 284 284 288 292 294 295 298 297 292 290 292 291 293 298 301 302 304 301 300 301 300 301 299 296 294 290 290 291 290 290 288 285
311 321 326 320 308 302 291 286 292 289 280 278 281 284 288 291 286 284 287 287 287 290 298 303 304 304 300 298 300 302 302 302 300 296 294 294 294 293 290 288 287 286 286
296 312 321 327 319 305 302 299 292 282 282 284 286 290 291 285 286 288 289 288 290 298 301 300 298 298 296 297 298 299 299 298 297 297 296 294 292 291 290 291 290 288 286
291 301 313 321 318 312 306 300 293 290 291 288 288 289 288 287 287 286 286 290 295 296 296 296 297 297 298 298 297 296 295 295 296 296 296 295 294 293 292 291 289 288 288
297 297 300 306 314 311 308 302 293 292 290 289 289 291 290 289 288 287 289 291 294 295 295 296 296 297 296 294 293 295 297 298 297 297 297 297 297 296 294 293 291 290 288
295 294 295 299 303 309 304 300 295 291 289 290 290 290 287 287 286 288 291 294 297 299 299 300 299 297 296 295 297 299 301 301 300 299 299 299 298 297 295 294 292 290 289
291 293 297 296 299 307 306 302 294 290 289 289 289 286 285 286 287 288 292 295 298 301 302 303 303 301 301 302 303 302 301 301 301 301 301 300 299 298 297 296 294 293 291
286 290 293 296 298 303 304 302 294 290 291 290 289 287 286 286 287 288 292 295 298 301 304 303 302 302 303 304 303 303 304 303 303 303 302 302 302 301 299 298 297 295 293
283 287 289 293 296 300 300 298 293 291 291 292 292 290 289 289 288 290 293 295 297 300 300 301 302 304 304 305 305 305 304 304 304 305 305 304 302 301 299 298 295 292 290
280 284 287 292 297 299 297 293 290 288 290 291 291 291 291 292 295 296 297 299 300 301 303 305 307 307 308 307 306 305 306 307 308 307 306 304 304 302 300 298 295 293 289
280 283 285 289 294 295 294 288 285 286 289 290 291 290 290 290 290 291 293 295 298 300 303 305 308 309 309 308 306 308 308 308 308 308 308 307 306 305 303 301 299 295 292
282 283 284 290 292 291 288 284 282 284 288 291 291 290 293 294 295 295 296 298 301 305 308 310 310 310 309 307 306 307 308 309 309 309 310 309 309 308 306 304 302 298 296
281 284 288 290 285 288 286 282 283 286 288 288 288 292 293 294 294 294 297 300 305 308 309 311 310 309 307 307 309 311 312 312 312 312 313 314 313 312 309 306 304 303 304
280 285 291 287 281 282 280 278 281 286 288 289 291 292 293 294 293 295 299 304 306 308 310 310 309 310 310 312 314 314 314 315 315 317 319 318 316 314 313 312 312 309 306
285 287 282 282 279 279 275 277 282 285 288 289 291 292 293 293 294 296 300 304 307 311 313 314 315 314 316 317 317 317 317 318 319 320 322 320 320 320 320 319 316 312 306
280 282 277 278 274 273 274 278 282 284 287 288 291 291 291 293 295 299 303 308 312 315 317 317 317 319 319 319 318 318 320 321 322 324 325 325 326 326 325 321 315 311 309
278 274 272 272 270 269 272 276 282 287 285 289 290 289 292 294 298 302 307 312 315 316 317 317 320 321 319 320 320 321 322 324 326 329 330 330 330 330 326 317 311 309 306
269 269 269 268 266 268 271 274 278 282 288 290 288 288 289 293 298 303 309 314 316 318 318 321 322 322 323 322 321 322 325 328 330 333 333 334 334 331 322 314 311 309 309
265 265 266 265 264 266 270 275 281 284 288 289 286 286 288 293 299 304 310 313 316 318 320 323 324 324 324 323 323 324 326 331 333 336 337 336 336 330 318 314 313 310 309
261 263 263 262 261 264 270 274 279 285 289 287 284 285 289 295 299 304 309 313 316 319 321 324 326 326 326 326 324 327 332 333 337 338 340 338 338 330 317 315 313 311 308
257 260 259 259 259 264 269 274 280 285 287 284 283 285 290 294 299 304 307 310 316 319 322 326 329 328 330 328 328 331 334 337 336 340 343 342 341 330 321 319 316 314 311
254 255 255 255 258 263 267 273 277 283 283 280 281 284 289 294 299 304 307 314 318 321 325 330 330 331 331 328 331 335 338 340 340 342 345 346 343 336 328 327 322 316 309
251 250 254 255 256 260 264 272 277 280 276 278 276 283 290 296 301 305 311 317 320 323 327 329 332 333 331 331 334 337 339 342 342 343 346 347 345 340 331 330 327 322 318
249 249 253 255 255 259 266 271 275 274 276 272 276 284 291 296 302 307 312 318 320 323 328 332 334 333 332 334 336 338 339 341 344 345 348 347 346 346 337 334 333 333 330
249 258 253 251 254 259 264 269 272 271 271 270 276 285 292 298 302 306 313 317 321 323 329 332 333 333 334 335 338 339 341 343 344 347 350 349 346 345 343 341 340 338 338